Regional Weather Roundup
Issued by NWS

Home | Current Version | Previous Version | Text Only | Print | Product List | Glossary Off
Versions: 1 2 3 4 5 6 7 8 9 10 11 12 13 14 15 16 17 18 19 20 21 22 23 24 25 26 27 28 29 30 31 32 33 34 35 36 37 38 39 40 41 42 43 44 45 46 47 48 49 50

000
ASUS45 KBOU 290807
RWRCO

WEATHER ROUNDUP FOR COLORADO
NATIONAL WEATHER SERVICE DENVER/BOULDER CO
100 AM MST SAT NOV 29 2014

NOTE: "FAIR" INDICATES FEW OR NO CLOUDS BELOW 12000 FEET WITH NO
SIGNIFICANT WEATHER AND/OR OBSTRUCTIONS TO VISIBILITY.

COZ001>005-013-030-031-290900-
...NORTHWEST COLORADO...

CITY           SKY/WX    TMP DP  RH WIND       PRES   REMARKS
CRAIG          CLEAR     26  18  71 SE8       29.88F WCI  18
HAYDEN         CLEAR     28  14  54 E8        29.88F WCI  20
MEEKER         CLEAR     44  15  31 SW8G23    29.91F
MOUNT WERNER   NOT AVBL
STEAMBOAT SPGS CLEAR     23  19  84 CALM      29.90F
WALDEN         CLEAR     34  14  44 S17       29.89F WCI  23
$$

COZ006>008-011-290900-
...WEST CENTRAL VALLEYS...

CITY           SKY/WX    TMP DP  RH WIND       PRES   REMARKS
GRAND JUNCTION PTCLDY    26  20  77 SE3       29.93F
MONTROSE       CLEAR     29  17  61 SE12      29.97F WCI  19
EAGLE          PTCLDY    25  21  86 CALM      29.99F
RIFLE          CLEAR     27  22  81 CALM      29.96F
DELTA          CLEAR     29  19  66 NE5       29.96F WCI  24
NUCLA          CLEAR     36  14  41 E9        30.03F
$$

COZ017>023-064>068-290900-
...SOUTHWEST COLORADO...

CITY           SKY/WX    TMP DP  RH WIND       PRES   REMARKS
DURANGO        PTCLDY    23  14  68 CALM      30.07F
CORTEZ         CLEAR     21  14  74 NE5       30.04F WCI  15
PAGOSA SPRINGS PTCLDY    25  13  59 CALM      30.10F
TELLURIDE      CLEAR     37   6  27 CALM      30.14F
WOLF CREEK PAS CLEAR     28   3  34 MISG      30.20F
$$

COZ009-010-012-014-032>034-037-058>063-290900-
...CENTRAL COLORADO...

CITY           SKY/WX    TMP DP  RH WIND       PRES   REMARKS
ASPEN          CLEAR     28  12  51 MISG      29.98F
BUENA VISTA    CLEAR     42   1  18 SW14G21   29.98R
COPPER MTN     PTCLDY    32  -2  23 S21G30    30.09F WCI  20
BERTHOUD PASS  NOT AVBL
COTTONWOOD PAS CLEAR     43  -9  11 W24G37    30.01F
GUNNISON       PTCLDY    12   9  85 N5        30.10F WCI   4
KREMMLING      CLEAR     41  10  28 W13G23    29.92F
LEADVILLE      PTCLDY    23   2  40 E8        30.02F WCI  14
MONARCH PASS   PTCLDY    27   1  33 W38       30.21F WCI   9
SALIDA         CLEAR     47   4  17 S8        30.05S
SUNLIGHT       CLEAR     30  14  51 S3        30.06F
WILKERSON PASS PTCLDY    32  -2  23 SW14G24   30.03F WCI  22
$$

COZ069>075-290900-
...SAN LUIS VALLEY/SANGRE DE CRISTO MOUNTAINS...

CITY           SKY/WX    TMP DP  RH WIND       PRES   REMARKS
ALAMOSA        PTCLDY    24   6  46 N5        30.04F WCI  18
LA VETA PASS   PTCLDY    37   3  23 S20G35    30.01F
SAGUACHE       PTCLDY    27  14  59 NW13      30.05F WCI  16
$$

COZ035-036-038>040-290900-
...NORTHERN COLORADO FRONT RANGE...

CITY           SKY/WX    TMP DP  RH WIND       PRES   REMARKS
DENVER INTL AP MOCLDY    50  10  20 S15       29.75F
DMNS CITY PARK   N/A     43  12  28 SW2G10    29.74F
AURORA         MOCLDY    44  11  26 S13       29.77F
FRONT RANGE AP MOCLDY    41  18  38 S20       29.76F
ERIE MUNI ARPT PTCLDY    53   5  14 SE3       29.73F
BOULDER MUN AP PTCLDY    59  10  14 S10G21    29.72F
CENTENNIAL     PTCLDY    45   8  22 S10       29.78F
BROOMFIELD     PTCLDY    52   9  17 E5        29.75F
FORT COLLINS   CLOUDY    52  12  20 SE5       29.73F
LONGMONT       CLOUDY    62   8  11 W10       29.73F
$$

COZ041-046-047-076>085-087-088-290900-
...PIKES PEAK/PALMER DIVIDE AND SOUTHERN FOOTHILLS...

CITY           SKY/WX    TMP DP  RH WIND       PRES   REMARKS
COLO. SPRINGS  PTCLDY    49   4  16 E3        29.83F
A. F. ACADEMY  PTCLDY    52  -3  10 N6G17     29.85F
ELLICOTT       NOT AVBL
FALCON         NOT AVBL
FORT CARSON    PTCLDY    44   8  23 NE6       29.80F
LIMON          MOCLDY    32  13  45 NW8       29.79F WCI  25
MONUMENT HILL  PTCLDY    45   5  19 SW13      29.84F
TRINIDAD       MOCLDY    41  17  38 VRB3      29.86S
$$

COZ042>045-048>051-090-091-290900-
...NORTHEAST COLORADO...

CITY           SKY/WX    TMP DP  RH WIND       PRES   REMARKS
GREELEY ARPT   CLOUDY    34  19  55 E3        29.72F
AKRON          CLOUDY    43  21  41 W12       29.71F
BURLINGTON     MOCLDY    43  14  31 W10       29.71S
WRAY           CLOUDY    34  25  69 W9        29.68F WCI  27
STERLING       CLOUDY    32  30  93 SW5       29.69F WCI  27
HOLYOKE        CLOUDY    37  28  70 W10       29.67F
FORT MORGAN    CLOUDY    40  21  46 W6        29.72F
$$

COZ086-089-092>099-290900-
...SOUTHEAST COLORADO...

CITY           SKY/WX    TMP DP  RH WIND       PRES   REMARKS
PUEBLO         PTCLDY    36  19  50 CALM      29.78F
LA JUNTA       MOCLDY    48  18  30 W15       29.76F
LAMAR          MOCLDY    43  18  36 S15       29.72F
SPRINGFIELD      N/A     50  11  20 W13       29.76F
$$



USA.gov is the U.S. government's official web portal to all federal, state and local government web resources and services.